Home > Weather > Sondershausen > Past weeks

Flag for Germany Past Weather in Sondershausen, Thuringia, Germany — Yesterday and Last 2 Weeks

Now
55 °F

Partly sunny.


Feels Like: 55 °F
Forecast: 52 / 65 °F
Wind: 5 mph from Northwest

Location: Erfurt-Bindersleben

Current Time: May 25, 2016 at 3:11:00 PM

Latest Report: May 25, 2016 at 2:20 PM


Visibility: N/A

Pressure: 29.98 "Hg

Humidity: 82%

Dew Point: 50 °F

Location of SondershausenLocation

Past Weather in Sondershausen — Graph

°F

Sondershausen Temperature Yesterday

Maximum temperature yesterday: 54 °F (at 12:20 AM)
Minimum temperature yesterday: 50 °F (at 3:50 PM)
Average temperature yesterday: 52 °F

High & Low Weather Summary for the Past Weeks

 TemperatureHumidityPressure
High82 °F (May 22, 2:20 PM)94% (May 13, 4:50 AM)30.09 "Hg (May 13, 4:50 AM)
Low36 °F (May 15, 3:20 AM)25% (May 22, 2:50 PM)29.50 "Hg (May 12, 4:50 PM)
Average56 °F67%29.87 "Hg
* Reported May 10 1:20 PM — May 25 1:50 PM, Sondershausen, Weather by CustomWeather, © 2016

Note: Actual official high and low records may vary slightly from our data, if they occured in-between our weather recording intervals... More about our weather records

Advertising

Sondershausen Weather History for the Previous 24 Hours

Scroll right to see more
 ConditionsComfort  
Time TempWeatherWind HumidityBarometerVisibility
1:50 PM
Wed, May 25
55 °FPartly sunny.7 mph82%29.98 "HgN/A
1:20 PM55 °FPartly sunny.7 mph82%29.98 "HgN/A
12:50 PM55 °FPartly sunny.5 mph82%29.98 "HgN/A
12:20 PM55 °FPartly sunny.3 mph77%29.98 "HgN/A
11:50 AM54 °FPartly sunny.5 mph82%29.98 "HgN/A
11:20 AM54 °FPartly sunny.6 mph82%29.98 "HgN/A
10:50 AM54 °FPartly sunny.2 mph82%29.98 "HgN/A
10:20 AM54 °FPartly sunny.2 mph82%29.98 "HgN/A
9:50 AM52 °FPartly sunny.3 mph88%29.98 "HgN/A
9:20 AM54 °FPartly sunny.2 mph82%29.98 "HgN/A
8:50 AM52 °FPartly sunny.3 mph82%29.98 "Hg5 mi
8:20 AM52 °FPartly sunny.1 mph82%29.98 "Hg5 mi
7:50 AM50 °FBroken clouds.3 mph88%29.98 "Hg4 mi
7:20 AM50 °FBroken clouds.6 mph88%29.98 "Hg4 mi
6:50 AM50 °FBroken clouds.5 mph94%29.98 "Hg4 mi
6:20 AM50 °FPartly sunny.7 mph94%29.98 "Hg4 mi
5:50 AM50 °FPassing clouds.6 mph94%29.98 "Hg4 mi
5:20 AM50 °FPassing clouds.5 mph94%29.98 "Hg4 mi
4:50 AM50 °FPassing clouds.5 mph94%29.95 "Hg5 mi
4:20 AM50 °FPartly cloudy.5 mph94%29.95 "Hg5 mi
3:50 AM50 °FPartly cloudy.3 mph88%29.95 "Hg5 mi
3:20 AM50 °FPartly cloudy.5 mph88%29.95 "Hg5 mi
2:50 AM50 °FPartly cloudy.7 mph94%29.95 "Hg5 mi
2:20 AM50 °FPassing clouds.6 mph94%29.95 "Hg5 mi
1:50 AM50 °FPassing clouds.6 mph94%29.95 "Hg5 mi
1:20 AM50 °FPassing clouds.6 mph94%29.95 "Hg5 mi
12:50 AM50 °FPassing clouds.7 mph94%29.95 "Hg5 mi
12:20 AM50 °FPassing clouds.6 mph94%29.95 "HgN/A
11:50 PM
Tue, May 24
50 °FPassing clouds.5 mph94%29.98 "HgN/A
11:20 PM50 °FPassing clouds.7 mph94%29.95 "HgN/A
10:50 PM50 °FPassing clouds.6 mph94%29.95 "HgN/A
10:20 PM50 °FPassing clouds.7 mph94%29.95 "HgN/A
9:50 PM50 °FBroken clouds.8 mph94%29.95 "HgN/A
9:20 PM50 °FBroken clouds.6 mph94%29.95 "HgN/A
8:50 PM50 °FBroken clouds.7 mph94%29.95 "HgN/A
8:20 PM50 °FBroken clouds.7 mph94%29.95 "Hg6 mi
7:50 PM50 °FBroken clouds.8 mph94%29.95 "HgN/A
7:20 PM50 °FBroken clouds.9 mph94%29.92 "HgN/A
6:50 PM50 °FLow clouds.9 mph94%29.92 "HgN/A
6:20 PM50 °FLow clouds.8 mph94%29.92 "HgN/A
5:50 PM50 °FLow clouds.9 mph94%29.92 "HgN/A
5:20 PM50 °FBroken clouds.10 mph94%29.92 "HgN/A
4:50 PM52 °FBroken clouds.10 mph88%29.92 "HgN/A
4:20 PM50 °FBroken clouds.14 mph94%29.92 "HgN/A
3:50 PM50 °FBroken clouds.13 mph94%29.92 "HgN/A
3:20 PM52 °FBroken clouds.10 mph88%29.92 "HgN/A
Weather by CustomWeather, © 2016

See weather overviewHow to use our weather pages